Regional Weather Roundup
Issued by NWS

Home | Current Version | Previous Version | Text Only | Print | Product List | Glossary Off
Versions: 1 2 3 4 5 6 7 8 9 10 11 12 13 14 15 16 17 18 19 20 21 22 23 24 25 26 27 28 29 30 31 32 33 34 35 36 37 38 39 40 41 42 43 44 45 46 47 48 49 50

780
ASUS45 KPSR 120610
RWRAZ

ARIZONA HOURLY REGIONAL WEATHER ROUNDUP
NATIONAL WEATHER SERVICE PHOENIX AZ
1100 PM MST THU FEB 11 2016

NOTE: FAIR INDICATES FEW OR NO CLOUDS BELOW 12,000 FEET WITH NO
SIGNIFICANT WEATHER AND/OR OBSTRUCTIONS TO VISIBILITY.

AZZ001>003-036-120700-
NORTHWEST ARIZONA

CITY           SKY/WX    TMP DP  RH WIND       PRES   REMARKS
BULLHEAD CITY  CLEAR     63  32  31 N6        30.17R
KINGMAN        CLEAR     41  26  55 CALM      30.26F
6HR MIN TEMP:  41; 6HR MAX TEMP:  73;

$$

AZZ004>008-015-016-018-120700-
NORTH CENTRAL ARIZONA

CITY           SKY/WX    TMP DP  RH WIND       PRES   REMARKS
GRAND CANYON   MOCLDY    27  20  75 CALM      30.41S
6HR MIN TEMP:  27; 6HR MAX TEMP:  62;

WILLIAMS       PTCLDY    36  21  55 S12       30.46R WCI  27
PRESCOTT       PTCLDY    43  24  47 S6        30.33R
6HR MIN TEMP:  42; 6HR MAX TEMP:  73;

FLAGSTAFF      MOCLDY    27  19  72 CALM      30.43R
6HR MIN TEMP:  27; 6HR MAX TEMP:  57;

PAYSON         CLEAR     52  16  24 SE3       30.33S
PAGE           MOCLDY    44  29  55 CALM      30.36S
6HR MIN TEMP:  42; 6HR MAX TEMP:  55;

$$

AZZ009>014-017-120700-
NORTHEAST ARIZONA

CITY           SKY/WX    TMP DP  RH WIND       PRES   REMARKS
WINSLOW        CLOUDY    34  18  52 CALM      30.37R
6HR MIN TEMP:  33; 6HR MAX TEMP:  65;

SAINT JOHNS    CLEAR     38  13  35 S9        30.37R WCI  31
6HR MIN TEMP:  37; 6HR MAX TEMP:  64;

WINDOW ROCK    CLEAR     33   0  24 CALM      30.42R
6HR MIN TEMP:  29; 6HR MAX TEMP:  61;

SHOW LOW       PTCLDY    32  14  47 CALM      30.40R
$$

AZZ023-120700-
GREATER PHOENIX AREA

CITY           SKY/WX    TMP DP  RH WIND       PRES   REMARKS
PHOENIX        CLEAR     65  35  33 E6        30.11S
6HR MIN TEMP:  64; 6HR MAX TEMP:  85;

BUCKEYE        CLEAR     57  30  35 N7        30.14S
LUKE AFB       CLEAR     59  34  40 N7        30.11S
6HR MIN TEMP:  57; 6HR MAX TEMP:  81;

DEER VALLEY    CLEAR     62  31  31 NE13      30.13S
6HR MIN TEMP:  62; 6HR MAX TEMP:  80;

SCOTTSDALE     CLEAR     60  34  37 CALM      30.14S
6HR MIN TEMP:  60; 6HR MAX TEMP:  82;

MESA-GATEWAY   CLEAR     54  36  50 SE3       30.14S
$$

AZZ027-028-120700-
SOUTHWEST MARICOPA COUNTY AND PINAL COUNTY

CITY           SKY/WX    TMP DP  RH WIND       PRES   REMARKS
CASA GRANDE    CLEAR     52  28  40 CALM      30.14S
6HR MIN TEMP:  52; 6HR MAX TEMP:  81;

GILA BEND      FAIR      58  32  36 S8        30.11R
6HR MIN TEMP:  58; 6HR MAX TEMP:  82;

$$

AZZ503-504-507>509-120700-
SOUTHEAST ARIZONA

CITY           SKY/WX    TMP DP  RH WIND       PRES   REMARKS
TUCSON         CLEAR     56  25  30 SE8       30.21R
6HR MIN TEMP:  56; 6HR MAX TEMP:  84;

DAVIS-MONTHAN  CLEAR     54  27  35 SE8       30.19R
6HR MIN TEMP:  53; 6HR MAX TEMP:  81;

NOGALES        CLEAR     48  17  29 NE5       30.24R
6HR MIN TEMP:  47; 6HR MAX TEMP:  80;

SIERRA VISTA   CLEAR     51  17  25 S7        30.28S
6HR MIN TEMP:  50; 6HR MAX TEMP:  75;

DOUGLAS        CLEAR     42   9  25 CALM      30.25S
6HR MIN TEMP:  41; 6HR MAX TEMP:  76;

SAFFORD        CLEAR     48  22  35 E6        30.21R
6HR MIN TEMP:  47; 6HR MAX TEMP:  75;

$$

AZZ020-021-025-026-031-120700-
SOUTHWEST ARIZONA

CITY           SKY/WX    TMP DP  RH WIND       PRES   REMARKS
YUMA           CLEAR     63  31  30 CALM      30.10R
6HR MIN TEMP:  62; 6HR MAX TEMP:  86;

$$

CAZ031-033-041-043-047-048-061-120700-
SOUTHERN CALIFORNIA

CITY           SKY/WX    TMP DP  RH WIND       PRES   REMARKS
DOWNTOWN L.A.  CLEAR     63  41  44 CALM      30.10S
6HR MIN TEMP:  62; 6HR MAX TEMP:  78;

L.A. AIRPORT   CLEAR     63  43  48 CALM      30.11S
6HR MIN TEMP:  63; 6HR MAX TEMP:  71;

SAN DIEGO      CLEAR     66  36  32 CALM      30.12R
6HR MIN TEMP:  66; 6HR MAX TEMP:  82;

BURBANK        CLEAR     63  37  38 N3        30.11S
6HR MIN TEMP:  63; 6HR MAX TEMP:  85;

ONTARIO        CLEAR     64  39  39 E3        30.14R
6HR MIN TEMP:  63; 6HR MAX TEMP:  84;

RIVERSIDE      CLEAR     64  35  34 NE5       30.14S
6HR MIN TEMP:  64; 6HR MAX TEMP:  85;

PALM SPRINGS   CLEAR     64  30  27 N7        30.14S
6HR MIN TEMP:  64; 6HR MAX TEMP:  85;

EL CENTRO NAS  CLEAR     58  26  29 W3        30.11S
6HR MIN TEMP:  57; 6HR MAX TEMP:  85;

IMPERIAL       CLEAR     58  35  42 NW3       30.09S
6HR MIN TEMP:  58; 6HR MAX TEMP:  85;

BLYTHE         CLEAR     58  25  28 N3        30.12S
6HR MIN TEMP:  58; 6HR MAX TEMP:  82;

NEEDLES        CLEAR     63  26  24 N7        30.16S
6HR MIN TEMP:  62; 6HR MAX TEMP:  81;

$$

NVZ020-UTZ003-120700-
SOUTHERN NEVADA-UTAH

CITY           SKY/WX    TMP DP  RH WIND       PRES   REMARKS
LAS VEGAS      CLEAR     56  23  27 S3        30.19S
6HR MIN TEMP:  56; 6HR MAX TEMP:  74;

SALT LAKE CITY CLOUDY    30  27  88 NW6       30.42R FOG     WCI  24
6HR MIN TEMP:  29; 6HR MAX TEMP:  32;

$$

NMZ009-TXZ055-120700-
NEW MEXICO-WEST TEXAS

CITY           SKY/WX    TMP DP  RH WIND       PRES   REMARKS
ALBUQUERQUE    CLOUDY    49  18  29 N8        30.34R
6HR MIN TEMP:  48; 6HR MAX TEMP:  65;

EL PASO        PTCLDY    49  19  30 SE3       30.23S
6HR MIN TEMP:  49; 6HR MAX TEMP:  71;

$$


........................KEY........................
SKY/WX - SKY CONDITION/WEATHER
TMP    - TEMPERATURE IN FAHRENHEIT
DP     - DEW POINT IN FAHRENHEIT
RH     - RELATIVE HUMIDITY IN PERCENT
WIND   - DIRECTION AND SPEED IN MILES PER HOUR (MPH)
VRB    - VARIABLE WIND DIRECTION
PRES   - MEAN SEA LEVEL PRESSURE IN INCHES OF MERCURY
         F - FALLING PRESSURE   R - RISING PRESSURE
         S - STEADY PRESSURE
VSB    - VISIBILITY IN MILES
HX     - HEAT INDEX IN FAHRENHEIT
WCI    - WIND CHILL INDEX IN FAHRENHEIT
TC     - TEMPERATURE IN CELSIUS WHICH IS ALSO KNOWN AS
         TEMPERATURE IN CENTIGRADE
AFB    - AIR FORCE BASE
         LUKE AFB IS LUKE AIR FORCE BASE
         DAVIS-MONTHAN IS DAVIS-MONTHAN AIR FORCE BASE
NAS    - NAVAL AIR STATION
         EL CENTRO NAS IS EL CENTRO NAVAL AIR STATION
N/A    - NOT AVAILABLE





USA.gov is the U.S. government's official web portal to all federal, state and local government web resources and services.